GW2891 Weather Reports


Display with metric or nautical units.
time (UTC)temp
F
wind
direction
speed
MPH
gust
MPH
rain 1hr
in
rain 24hr
in
rain mn
in
humidity
%
barometer
mb
20260509054505 51 213 0.0 0.0 0.00 0.00 0.00 94 1006.0
20260509053051 51 215 0.0 0.0 0.00 0.00 0.00 94 1006.1
20260509051511 51 219 0.0 0.0 0.00 0.00 0.00 93 1006.2
20260509050032 51 219 0.0 0.0 0.00 0.00 0.00 93 1006.2
20260509044600 51 219 0.0 0.0 0.00 0.00 0.00 93 1006.2
20260509043024 51 219 0.0 0.0 0.00 0.00 0.01 92 1006.3
20260509041545 51 219 0.0 0.0 0.00 0.00 0.01 92 1006.4
20260509040014 52 219 0.0 0.0 0.00 0.00 0.01 91 1006.5
20260509034537 52 219 0.0 0.0 0.00 0.00 0.01 91 1006.6
20260509033057 52 220 0.0 0.0 0.00 0.00 0.01 90 1006.7
20260509031524 53 220 0.0 0.0 0.00 0.00 0.01 90 1006.8
20260509030043 53 220 0.0 0.0 0.00 0.00 0.01 89 1006.9
20260509024507 54 220 0.0 0.0 0.00 0.00 0.01 88 1007.1
20260509023039 55 220 0.0 0.0 0.00 0.00 0.01 88 1006.9
20260509021558 55 246 0.0 0.0 0.00 0.00 0.01 87 1006.8
20260509020035 55 217 0.0 0.0 0.00 0.00 0.01 87 1006.9
20260509014551 56 262 0.0 0.0 0.00 0.00 0.01 87 1006.9
20260509013016 56 259 0.0 0.0 0.00 0.00 0.01 86 1006.8
20260509011541 56 194 0.0 0.0 0.00 0.00 0.01 86 1006.7
20260509010001 56 196 0.0 0.0 0.00 0.00 0.01 85 1006.4
20260509004532 56 273 0.0 0.0 0.00 0.00 0.01 84 1006.4
20260509003052 57 263 0.0 0.0 0.00 0.00 0.01 84 1006.4
20260509001510 58 259 0.0 0.0 0.00 0.00 0.01 83 1006.4
20260509000038 59 199 0.0 0.0 0.00 0.00 0.01 83 1006.3
20260508234507 59 282 0.0 0.0 0.00 0.00 0.01 82 1006.4
20260508233025 59 271 1.0 0.0 0.00 0.00 0.01 81 1006.5
20260508231616 59 200 3.0 0.0 0.00 0.00 0.01 81 1006.5
20260508230002 59 215 3.0 0.0 0.00 0.00 0.01 81 1006.5
20260508224527 59 254 5.0 0.0 0.00 0.00 0.01 79 1006.7
20260508223050 59 274 5.0 0.0 0.00 0.00 0.01 78 1006.6
20260508221559 59 286 7.0 0.0 0.00 0.00 0.01 78 1006.6
20260508220017 59 222 4.0 0.0 0.00 0.00 0.01 79 1006.6
20260508214614 59 280 4.0 0.0 0.00 0.00 0.01 80 1006.7
20260508213012 59 265 5.0 0.0 0.00 0.00 0.01 78 1006.8
20260508211539 59 284 4.0 0.0 0.00 0.00 0.01 78 1006.9
20260508204525 60 182 0.0 0.0 0.00 0.00 0.01 76 1007.0
20260508203056 60 209 0.0 0.0 0.00 0.00 0.01 75 1007.3
20260508201516 61 200 0.0 0.0 0.00 0.00 0.01 73 1007.6
20260508200043 62 185 0.0 0.0 0.00 0.00 0.01 73 1007.7
20260508194502 60 254 0.0 0.0 0.00 0.00 0.01 76 1007.9
20260508193039 59 175 0.0 0.0 0.00 0.00 0.01 77 1008.1
20260508191555 58 259 0.0 0.0 0.00 0.00 0.01 80 1008.3
20260508190009 56 188 0.0 0.0 0.00 0.00 0.01 83 1008.8
20260508184528 56 202 0.0 0.0 0.00 0.00 0.01 85 1009.1
20260508183048 55 189 0.0 0.0 0.00 0.00 0.01 85 1009.3
20260508181516 55 223 0.0 0.0 0.00 0.00 0.01 85 1009.3
20260508180033 55 267 0.0 0.0 0.00 0.00 0.01 85 1009.5
20260508174605 54 97 0.0 0.0 0.00 0.00 0.01 85 1009.6
20260508173020 54 237 0.0 0.0 0.00 0.00 0.01 86 1009.9
20260508171549 54 241 0.0 0.0 0.00 0.00 0.01 85 1010.1
20260508170013 54 256 0.0 0.0 0.00 0.00 0.01 85 1010.4
20260508164527 54 148 0.0 0.0 0.00 0.00 0.00 85 1010.5
20260508163039 54 237 0.0 0.0 0.00 0.00 0.00 86 1010.7
20260508161504 54 201 0.0 0.0 0.00 0.00 0.00 85 1010.9
20260508160032 54 207 0.0 0.0 0.00 0.00 0.00 86 1011.0
20260508154502 54 215 0.0 0.0 0.00 0.00 0.00 87 1010.8
20260508153019 54 201 0.0 0.0 0.00 0.00 0.00 88 1010.7
20260508151539 53 219 0.0 0.0 0.00 0.00 0.00 90 1010.7
20260508150015 53 267 0.0 0.0 0.00 0.00 0.00 91 1010.9
20260508144542 52 195 0.0 0.0 0.00 0.00 0.00 92 1010.8
20260508143010 51 203 0.0 0.0 0.00 0.00 0.00 92 1011.0
20260508141536 50 259 0.0 0.0 0.00 0.00 0.00 92 1011.2
20260508140103 50 255 0.0 0.0 0.00 0.00 0.00 91 1011.7
20260508134512 50 252 0.0 0.0 0.00 0.00 0.00 90 1011.5
20260508133042 50 269 0.0 0.0 0.00 0.00 0.00 90 1011.4
20260508131504 49 257 0.0 0.0 0.00 0.00 0.00 90 1011.2
20260508130022 49 246 0.0 0.0 0.00 0.00 0.00 90 1011.4
20260508124542 49 267 0.0 0.0 0.00 0.00 0.00 90 1011.2
20260508123100 48 261 0.0 0.0 0.00 0.00 0.00 90 1011.2
20260508121524 48 265 1.0 0.0 0.00 0.00 0.00 91 1011.3
20260508120044 47 263 0.0 0.0 0.00 0.00 0.00 91 1011.0
20260508114511 46 250 0.0 0.0 0.00 0.00 0.00 92 1010.9
20260508113042 46 242 0.0 0.0 0.00 0.00 0.00 93 1010.9
20260508111508 45 242 0.0 0.0 0.00 0.00 0.00 92 1010.9
20260508110036 44 242 0.0 0.0 0.00 0.00 0.00 91 1010.8
20260508104504 45 242 0.0 0.0 0.00 0.00 0.00 91 1010.8
20260508103024 45 261 0.0 0.0 0.00 0.00 0.00 91 1010.6
20260508101547 46 259 0.0 0.0 0.00 0.00 0.00 91 1010.6
20260508100014 46 267 0.0 0.0 0.00 0.00 0.00 91 1010.4
20260508094531 46 272 0.0 0.0 0.00 0.00 0.00 91 1010.6
20260508093056 46 250 0.0 0.0 0.00 0.00 0.00 90 1010.7
20260508091516 46 236 0.0 0.0 0.00 0.00 0.00 91 1010.8
20260508090033 45 270 0.0 0.0 0.00 0.00 0.00 92 1010.8
20260508084552 45 243 0.0 0.0 0.00 0.00 0.00 92 1010.7
20260508083011 44 254 1.0 0.0 0.00 0.00 0.00 92 1010.8
20260508081543 45 260 2.0 0.0 0.00 0.00 0.00 92 1010.8
20260508080048 44 257 1.0 0.0 0.00 0.00 0.00 93 1010.9
20260508074510 44 254 1.0 0.0 0.00 0.00 0.00 93 1010.8
20260508073038 44 254 2.0 0.0 0.00 0.00 0.00 93 1010.8
20260508071555 44 252 2.0 0.0 0.00 0.00 0.00 94 1010.7
20260508070008 44 209 2.0 0.0 0.00 0.00 0.00 94 1010.7
20260508064525 44 203 1.0 0.0 0.00 0.00 0.00 94 1010.9
20260508063038 44 207 2.0 0.0 0.00 0.00 0.00 94 1010.9
20260508061506 44 207 1.0 0.0 0.00 0.00 0.00 95 1011.0
20260508060024 44 196 1.0 0.0 0.00 0.00 0.00 94 1011.1